Location: Dehesa de la Cepeda
(40.6574°N, 4.3013°W)
Time: 09:09:16
(UTC+00:00)

Transit 2A Rocket - Pass Details

Date: 11 August 2021
Orbit: 586 x 917 km, 66.7° (Epoch: 24 September)

Event Time Altitude Azimuth Distance (km) Brightness Sun altitude
Rises 18:48:01 0° 343° (NNW) 3,283 8.8 5.0°
Reaches altitude 10° 18:51:33 10° 7° (N) 2,422 7.7 4.4°
Maximum altitude 18:54:40 15° 41° (NE) 2,146 7.1 3.8°
Drops below altitude 10° 18:57:53 10° 74° (ENE) 2,522 7.2 3.2°
Sets 19:01:39 0° 97° (E) 3,504 7.7 2.5°
